[[{"header":{"parameterUnit":"m.s-1","parameterCategory":1,"la1":30.2991,"la2":30.254,"lo1":-89.0895,"lo2":-89.0444,"dy":0.0017,"dx":0.0017,"nx":28,"ny":28,"refTime":"2023-04-17T21:00:00:Z","depth":0,"parameterNumber":2,"parameterNumberName":"U-component_of_WINDS"},"data":[0,0,0,0,0,0,0,0,0,0,0,0,0,0,0,0,0,0,0,0,0,0,0,0,0,0,0,0,0,0,0,0,0,0,0,0,0,0,0,0,0,0,0,0,0,0,0,0,0,0,0,0,0,0,0,0,0,0,-0.9739,-0.9738,0,-0.9673,-0.9672,-0.9671,-0.9624,-0.9623,-0.9623,-0.9622,-0.9554,-0.9553,-0.9551,0,0,0,0,0,0,0,0,0,0,0,0,0,-0.9823,-0.9822,-0.9739,-0.9738,-0.9738,-0.9673,-0.9672,-0.9671,-0.9624,-0.9623,-0.9623,-0.9622,-0.9554,-0.9553,-0.9551,0,0,0,0,0,0,0,0,0,0,0,0,0,-0.9775,-0.9822,-0.9739,-0.9706,-0.9702,-0.9673,-0.9672,-0.9671,-0.9624,-0.9623,-0.9623,-0.9622,-0.9555,-0.9553,-0.9551,-0.9549,0,0,-0.9544,-0.9543,0,0,0,0,0,0,0,0,-0.9778,-0.9772,-0.9712,-0.9708,-0.9704,-0.9656,-0.9677,-0.963,-0.9624,-0.9654,-0.9622,-0.9622,-0.9588,-0.9583,-0.9572,-0.9546,-0.9543,-0.9544,-0.9543,-0.9542,-0.9541,0,0,0,0,0,0,0,-0.9781,-0.9774,-0.9713,-0.9711,-0.9706,-0.9694,-0.9686,-0.9668,-0.9625,-0.9651,-0.9647,-0.964,-0.9586,-0.9574,-0.957,-0.9542,-0.9544,-0.9542,-0.9541,-0.954,-0.9511,-0.9511,0,0,0,0,0,0,-0.979,-0.9778,-0.9715,-0.9711,-0.974,-0.9693,-0.9685,-0.9672,-0.9625,-0.9617,-0.9641,-0.9638,-0.9578,-0.9573,-0.9568,-0.9563,-0.9542,-0.954,-0.9538,-0.951,-0.9511,-0.9511,0,0,0,0,0,0,-0.9792,-0.9785,-0.9718,-0.9743,-0.9734,-0.9692,-0.9678,-0.9671,-0.9659,-0.9617,-0.961,-0.9637,-0.9578,-0.9571,-0.9554,-0.956,-0.9539,-0.9537,-0.951,-0.951,-0.9511,-0.9553,0,0,0,0,0,0,-0.9794,-0.9786,-0.9785,-0.9744,-0.9733,-0.9706,-0.9679,-0.967,-0.9656,-0.9652,-0.9612,-0.9604,-0.9577,-0.9558,-0.9552,-0.9556,-0.9535,-0.9509,-0.951,-0.9511,-0.9551,-0.9555,-0.9559,0,0,0,0,0,-0.9798,-0.9799,-0.9785,-0.9778,-0.9731,-0.9706,-0.97,-0.9668,-0.9656,-0.9655,-0.9628,-0.9606,-0.956,-0.9556,-0.955,-0.9553,-0.9508,-0.951,-0.9511,-0.9549,-0.9554,-0.9559,0,0,0,0,0,0,-0.9843,-0.9793,-0.9777,-0.9766,-0.9741,-0.9698,-0.9696,-0.9675,-0.9652,-0.965,-0.9611,-0.9602,-0.959,-0.957,-0.9567,-0.9549,-0.9531,-0.9531,-0.9563,-0.9567,-0.9571,-0.9576,-0.9533,0,0,0,0,0,-0.9851,-0.9836,-0.9793,-0.9787,-0.9775,-0.9738,-0.9726,-0.9704,-0.9676,-0.9665,-0.9637,-0.9611,-0.959,-0.9577,-0.9556,-0.9548,-0.9538,-0.9547,-0.9551,-0.9554,-0.9555,-0.9548,-0.9551,-0.9515,-0.9515,-0.9515,0,0,-0.9869,-0.984,-0.9833,-0.9796,-0.9773,-0.9758,-0.9729,-0.9714,-0.9702,-0.9663,-0.9645,-0.9624,-0.9592,-0.9579,-0.9572,-0.9562,-0.9562,-0.9556,-0.9559,-0.9557,-0.955,-0.9553,-0.9556,-0.9516,-0.9516,-0.9516,0,0,-0.9893,-0.987,-0.9862,-0.984,-0.9807,-0.9782,-0.978,-0.9741,-0.9725,-0.9707,-0.9677,-0.9662,-0.9628,-0.9606,-0.9591,-0.9606,-0.9584,-0.96,-0.962,-0.9614,-0.9617,-0.962,-0.9625,-0.9627,-0.96,-0.96,-0.9601,0,-0.9919,-0.9895,-0.9861,-0.9847,-0.9832,-0.9795,-0.9787,-0.9767,-0.9729,-0.9719,-0.9708,-0.9664,-0.964,-0.9622,-0.9625,-0.9614,-0.961,-0.9605,-0.962,-0.9622,-0.9623,-0.9628,-0.963,-0.9603,-0.9602,-0.9602,-0.9602,0,-0.9929,-0.9912,-0.991,-0.9874,-0.9858,-0.9847,-0.9811,-0.9799,-0.9777,-0.9753,-0.9735,-0.9705,-0.9677,-0.9671,-0.965,-0.9649,-0.9644,-0.9627,-0.9608,-0.9629,-0.9633,-0.9635,-0.9606,-0.9605,-0.9604,-0.9604,0,0,-0.998,-0.9925,-0.9925,-0.9908,-0.9868,-0.9854,-0.9841,-0.9814,-0.9804,-0.9779,-0.9767,-0.9738,-0.9722,-0.9705,-0.9681,-0.9676,-0.969,-0.9659,-0.9658,-0.9666,-0.9686,-0.97,-0.9702,-0.9675,-0.9675,-0.9675,-0.9689,0,-0.9999,-0.9974,-0.9943,-0.9928,-0.9912,-0.9877,-0.9866,-0.984,-0.9817,-0.98,-0.9774,-0.9754,-0.9735,-0.9724,-0.9717,-0.969,-0.9693,-0.9688,-0.9663,-0.9663,-0.9673,-0.9704,-0.9718,-0.9733,-0.969,-0.9691,-0.9691,0,-1.0017,-0.9993,-0.9978,-0.9939,-0.9931,-0.9921,-0.9893,-0.9877,-0.9847,-0.983,-0.9811,-0.9785,-0.9769,-0.9752,-0.973,-0.9727,-0.9715,-0.9699,-0.9699,-0.9696,-0.9678,-0.9702,-0.9737,-0.9739,-0.9693,-0.9692,-0.9692,0,-1.0056,-1.002,-1.0006,-0.9993,-0.9947,-0.9941,-0.9922,-0.9891,-0.9876,-0.9852,-0.9842,-0.9816,-0.9801,-0.9781,-0.9749,-0.974,-0.973,-0.971,-0.9716,-0.9716,-0.9715,-0.9716,-0.9749,-0.9707,-0.9707,-0.9707,-0.9707,0,-1.008,-1.0072,-1.0023,-1.0015,-1.0004,-0.9968,-0.9958,-0.9936,-0.9908,-0.9894,-0.9862,-0.985,-0.9808,-0.979,-0.9765,-0.975,-0.9743,-0.9729,-0.9723,-0.9732,-0.9734,-0.9724,-0.9722,-0.9708,-0.9708,-0.9708,-0.9707,0,-1.0123,-1.009,-1.0072,-1.003,-1.0019,-1.0014,-0.9977,-0.9967,-0.9942,-0.9925,-0.9918,-0.9879,-0.9856,-0.9822,-0.9789,-0.9772,-0.9761,-0.975,-0.9772,-0.9768,-0.9775,-0.9775,-0.9803,-0.9804,-0.9762,-0.9762,-0.9763,0,-1.0141,-1.0134,-1.0091,-1.0079,-1.0061,-1.0042,-1.0027,-0.9991,-0.9976,-0.9941,-0.9935,-0.991,-0.9888,-0.9854,-0.9822,-0.9796,-0.9784,-0.9796,-0.978,-0.979,-0.9784,-0.9785,-0.9784,-0.98,-0.98,-0.9801,-0.9801,0,-1.0176,-1.016,-1.0139,-1.0113,-1.0096,-1.0073,-1.0049,-1.0041,-0.9999,-0.9984,-0.9961,-0.9944,-0.991,-0.9886,-0.9856,-0.9835,-0.9811,-0.9806,-0.9806,-0.9816,-0.9829,-0.9822,-0.9782,-0.9806,-0.9806,-0.9805,-0.9805,-0.9805,-1.0206,-1.0198,-1.0167,-1.0145,-1.0123,-1.0101,-1.0089,-1.0062,-1.0042,-1.0012,-0.9991,-0.9969,-0.9938,-0.9895,-0.9876,-0.9858,-0.9847,-0.9847,-0.9847,-0.9848,-0.9851,-0.9832,-0.9852,-0.9852,-0.9852,-0.9851,-0.9851,0,-1.024,-1.0218,-1.0198,-1.0165,-1.0147,-1.0126,-1.0098,-1.0085,-1.0066,-1.0039,-1.0018,-0.9991,-0.9966,-0.9932,-0.9905,-0.9897,-0.9886,-0.9891,-0.9892,-0.9887,-0.9862,-0.9865,-0.9901,-0.9901,-0.9901,-0.9901,-0.9901,-0.9901,-1.0255,-1.024,-1.022,-1.0194,-1.0171,-1.0149,-1.0135,-1.0114,-1.0093,-1.0064,-1.0043,-1.0021,-0.9991,-0.9962,-0.9938,-0.9929,-0.992,-0.9929,-0.9917,-0.9894,-0.9889,-0.9885,-0.9887,-0.9928,-0.9928,-0.9943,-0.9944,-0.9944]},{"header":{"parameterUnit":"m.s-1","parameterCategory":1,"la1":30.2991,"la2":30.254,"lo1":-89.0895,"lo2":-89.0444,"dy":0.0017,"dx":0.0017,"nx":28,"ny":28,"refTime":"2023-04-17T21:00:00:Z","depth":0,"parameterNumber":3,"parameterNumberName":"V-component_of_WINDS"},"data":[0,0,0,0,0,0,0,0,0,0,0,0,0,0,0,0,0,0,0,0,0,0,0,0,0,0,0,0,0,0,0,0,0,0,0,0,0,0,0,0,0,0,0,0,0,0,0,0,0,0,0,0,0,0,0,0,0,0,2.3993,2.3993,0,2.3942,2.3941,2.3941,2.3868,2.3866,2.3865,2.3864,2.3812,2.3811,2.3811,0,0,0,0,0,0,0,0,0,0,0,0,0,2.4028,2.4028,2.3994,2.3993,2.3992,2.3942,2.3941,2.3941,2.3868,2.3866,2.3865,2.3863,2.3812,2.3811,2.3811,0,0,0,0,0,0,0,0,0,0,0,0,0,2.3998,2.4028,2.3994,2.395,2.3945,2.3942,2.3941,2.394,2.3868,2.3866,2.3864,2.3863,2.3812,2.3811,2.3811,2.3847,0,0,2.381,2.381,0,0,0,0,0,0,0,0,2.4,2.3997,2.3957,2.3953,2.3948,2.3909,2.3934,2.3909,2.3869,2.3898,2.3864,2.3862,2.3846,2.3842,2.3837,2.3844,2.3842,2.381,2.381,2.381,2.381,0,0,0,0,0,0,0,2.4002,2.3999,2.3973,2.3956,2.3951,2.3932,2.3926,2.3929,2.3883,2.3895,2.3889,2.3884,2.3843,2.3837,2.3835,2.3841,2.381,2.381,2.381,2.3809,2.3872,2.3874,0,0,0,0,0,0,2.4011,2.4001,2.3975,2.3972,2.397,2.3933,2.3926,2.3924,2.3883,2.3874,2.3886,2.3881,2.3839,2.3836,2.3833,2.387,2.381,2.3809,2.3809,2.3871,2.3873,2.3875,0,0,0,0,0,0,2.4012,2.4009,2.3977,2.3985,2.3979,2.3935,2.3932,2.3924,2.3918,2.3876,2.3867,2.3889,2.3837,2.3834,2.3843,2.3867,2.3809,2.3809,2.3868,2.3871,2.3874,2.3945,0,0,0,0,0,0,2.4013,2.401,2.4024,2.3986,2.3979,2.3988,2.3934,2.3924,2.3918,2.3911,2.3876,2.3869,2.3836,2.3844,2.3843,2.3866,2.3809,2.3866,2.387,2.3873,2.3941,2.395,2.3958,0,0,0,0,0,2.4015,2.4046,2.4025,2.4022,2.3995,2.399,2.3986,2.3947,2.392,2.3932,2.3905,2.387,2.3865,2.3846,2.3844,2.3867,2.3864,2.3869,2.3873,2.3937,2.3948,2.3958,0,0,0,0,0,0,2.4089,2.4041,2.4016,2.4036,2.4018,2.3978,2.3992,2.3961,2.395,2.3944,2.3896,2.3889,2.3904,2.3887,2.3866,2.3898,2.3859,2.3863,2.3908,2.3919,2.3928,2.3931,2.3808,0,0,0,0,0,2.4107,2.4107,2.4065,2.4087,2.4079,2.4038,2.4034,2.4005,2.3984,2.3976,2.3949,2.393,2.3924,2.3921,2.3913,2.3938,2.3928,2.3953,2.3962,2.3969,2.3973,2.3982,2.3992,2.3889,2.3889,2.3889,0,0,2.4146,2.412,2.4123,2.4101,2.4084,2.4084,2.4032,2.4035,2.4034,2.3977,2.3983,2.3963,2.3938,2.3955,2.3961,2.3941,2.3999,2.3974,2.3981,2.398,2.3987,2.3997,2.4006,2.3891,2.3891,2.3891,0,0,2.4216,2.4197,2.4212,2.4195,2.4168,2.414,2.4144,2.4108,2.4092,2.4098,2.4054,2.4053,2.4044,2.4027,2.4017,2.4079,2.4046,2.4078,2.4124,2.4134,2.4142,2.4149,2.4169,2.4177,2.4082,2.4083,2.4083,0,2.4267,2.4266,2.4224,2.4229,2.422,2.4167,2.4181,2.4167,2.414,2.4134,2.4112,2.4098,2.4078,2.4088,2.4103,2.4098,2.41,2.4082,2.4145,2.4151,2.4157,2.4175,2.4183,2.4087,2.4086,2.4086,2.4085,0,2.4329,2.4329,2.4344,2.4318,2.4311,2.4321,2.4279,2.4277,2.4249,2.4223,2.4229,2.4203,2.4187,2.4188,2.4161,2.4195,2.4183,2.4154,2.4113,2.4171,2.4188,2.4195,2.4092,2.4091,2.409,2.4089,0,0,2.4444,2.4393,2.4399,2.4386,2.4352,2.4351,2.4358,2.4342,2.434,2.4323,2.4326,2.4319,2.4291,2.428,2.4251,2.426,2.4307,2.4228,2.4227,2.4242,2.434,2.4361,2.437,2.4285,2.4287,2.4288,2.4341,0,2.4506,2.4514,2.4476,2.4494,2.4492,2.4442,2.4447,2.4427,2.4403,2.4397,2.437,2.4365,2.4329,2.4322,2.4329,2.43,2.4326,2.4296,2.4287,2.4287,2.4293,2.4379,2.4402,2.4454,2.4348,2.4349,2.435,0,2.4579,2.4564,2.4583,2.4546,2.4544,2.455,2.4531,2.4527,2.4502,2.4484,2.4471,2.4436,2.4439,2.4402,2.4404,2.4385,2.4379,2.4364,2.4365,2.4361,2.4321,2.4376,2.447,2.4477,2.436,2.4359,2.4358,0,2.4658,2.4644,2.4652,2.4642,2.46,2.4605,2.4588,2.4561,2.4553,2.4537,2.4532,2.4517,2.4508,2.4497,2.4458,2.4435,2.4465,2.4425,2.4448,2.4449,2.4455,2.4455,2.4548,2.4455,2.4455,2.4454,2.4454,0,2.473,2.4743,2.4686,2.4691,2.4703,2.4659,2.4672,2.4649,2.4626,2.4625,2.4581,2.458,2.4531,2.4525,2.4495,2.45,2.4497,2.4481,2.4473,2.4484,2.4486,2.4478,2.4473,2.4456,2.4456,2.4456,2.4455,0,2.4821,2.4784,2.4789,2.4748,2.4738,2.4749,2.4713,2.4716,2.4688,2.4687,2.4685,2.4642,2.4632,2.4593,2.4575,2.4554,2.4568,2.4553,2.4577,2.4571,2.4595,2.4593,2.4685,2.4694,2.4597,2.4598,2.4599,0,2.4868,2.4876,2.4836,2.4832,2.4817,2.4811,2.4803,2.4759,2.4752,2.4723,2.4729,2.4716,2.4703,2.4689,2.4656,2.4641,2.4624,2.4657,2.4621,2.4632,2.4622,2.4621,2.4621,2.4665,2.4666,2.4667,2.4668,0,2.4956,2.4937,2.4927,2.491,2.4901,2.4886,2.4868,2.4867,2.4818,2.4812,2.4802,2.4791,2.4771,2.4758,2.4737,2.4718,2.4684,2.4679,2.4683,2.4694,2.4707,2.4698,2.4596,2.4677,2.4676,2.4676,2.4675,2.4675,2.5025,2.5029,2.5001,2.499,2.4972,2.4956,2.4955,2.4928,2.4918,2.4898,2.4873,2.4865,2.4838,2.4806,2.479,2.4782,2.4763,2.477,2.4771,2.4773,2.4778,2.4709,2.4778,2.4778,2.4778,2.4777,2.4777,0,2.5108,2.5087,2.5078,2.5054,2.5046,2.5015,2.4993,2.4987,2.4981,2.4959,2.4946,2.4933,2.4919,2.4885,2.4867,2.4868,2.4851,2.4864,2.4863,2.4859,2.4797,2.4794,2.4878,2.4878,2.4878,2.4878,2.4878,2.4878,2.515,2.5155,2.5132,2.5127,2.5106,2.5097,2.5087,2.5072,2.5053,2.504,2.5029,2.5006,2.4978,2.4958,2.4944,2.4934,2.4928,2.4946,2.4931,2.4873,2.4864,2.4854,2.4851,2.4946,2.4946,2.4993,2.4994,2.4994]}]]